TimeCST,TemperatureF,Dew PointF,Humidity,Sea Level PressureIn,VisibilityMPH,Wind Direction,Wind SpeedMPH,Gust SpeedMPH,PrecipitationIn,Events,Conditions,WindDirDegrees,DateUTC
12:54 AM,21.9,14.0,72,30.29,10.0,North,6.9,-,N/A,,Clear,360,2013-01-26 06:54:00
1:54 AM,19.9,10.9,68,30.31,10.0,NNW,8.1,-,N/A,,Clear,340,2013-01-26 07:54:00
2:54 AM,18.0,8.1,65,30.31,10.0,North,8.1,-,N/A,,Clear,360,2013-01-26 08:54:00
3:54 AM,16.0,7.0,68,30.32,10.0,North,8.1,-,N/A,,Clear,10,2013-01-26 09:54:00
4:54 AM,15.1,7.0,70,30.32,10.0,NNE,8.1,-,N/A,,Clear,20,2013-01-26 10:54:00
5:54 AM,14.0,6.1,71,30.35,10.0,NNE,6.9,-,N/A,,Clear,30,2013-01-26 11:54:00
6:54 AM,12.2,6.8,79,30.34,10.0,North,4.6,-,N/A,,Clear,10,2013-01-26 12:54:00
7:54 AM,14.0,7.0,74,30.40,10.0,NW,3.5,-,N/A,,Clear,320,2013-01-26 13:54:00
8:54 AM,17.1,7.0,65,30.41,10.0,ENE,5.8,-,N/A,,Clear,70,2013-01-26 14:54:00
9:54 AM,19.9,8.1,60,30.41,10.0,ENE,6.9,-,N/A,,Clear,60,2013-01-26 15:54:00
10:54 AM,23.0,9.0,55,30.42,10.0,South,4.6,-,N/A,,Clear,180,2013-01-26 16:54:00
11:54 AM,27.0,9.0,47,30.41,10.0,SSE,4.6,-,N/A,,Clear,160,2013-01-26 17:54:00
12:54 PM,30.0,10.0,43,30.37,10.0,South,5.8,-,N/A,,Clear,180,2013-01-26 18:54:00
1:54 PM,32.0,10.9,42,30.35,10.0,SSE,4.6,-,N/A,,Clear,160,2013-01-26 19:54:00
2:54 PM,35.1,10.9,37,30.32,10.0,ESE,6.9,-,N/A,,Clear,110,2013-01-26 20:54:00
3:54 PM,35.1,10.9,37,30.32,10.0,SE,6.9,-,N/A,,Clear,130,2013-01-26 21:54:00
4:54 PM,33.1,14.0,46,30.32,10.0,ESE,5.8,-,N/A,,Clear,110,2013-01-26 22:54:00
5:54 PM,30.9,12.9,47,30.32,10.0,ESE,9.2,-,N/A,,Clear,110,2013-01-26 23:54:00
6:54 PM,30.9,14.0,50,30.32,10.0,ESE,9.2,-,N/A,,Clear,110,2013-01-27 00:54:00
7:54 PM,30.0,15.1,54,30.31,10.0,SE,9.2,-,N/A,,Clear,130,2013-01-27 01:54:00
8:54 PM,28.9,16.0,58,30.31,10.0,SE,9.2,-,N/A,,Clear,130,2013-01-27 02:54:00
9:54 PM,28.0,16.0,61,30.32,10.0,SE,6.9,-,N/A,,Clear,130,2013-01-27 03:54:00
10:54 PM,27.0,16.0,63,30.31,10.0,SE,8.1,-,N/A,,Clear,140,2013-01-27 04:54:00
11:54 PM,27.0,16.0,63,30.30,10.0,SE,9.2,-,N/A,,Clear,130,2013-01-27 05:54:00